This demonstration page uses our WeatherBlox Daily Observations layout. Learn more.

Left ArrowRight Arrow

Hourly Observations for November 13, 2015

Temp ( °F °C ) Dew Point ( °F °C ) Humidity (%) Winds ( mph kmh ) Pressure ( in mb ) Visibility ( mi km ) Precip ( " mm )
12:53 am 00:53 Clear 33 0.6 24 -4.4 70 70 WSW 3 6 30.30 1026 10 16 0.00 0.00
1:53 am 01:53 Clear 32 0 23 -5 69 69 W 3 6 30.33 1027 10 16 0.00 0.00
2:53 am 02:53 Clear 31 -0.6 23 -5 72 72 WSW 6 9 30.33 1027 10 16 0.00 0.00
3:53 am 03:53 Clear 31 -0.6 23 -5 72 72 W 5 7 30.33 1027 10 16 0.00 0.00
4:53 am 04:53 Clear 31 -0.6 22 -5.6 69 69 W 6 9 30.33 1027 10 16 0.00 0.00
5:53 am 05:53 Clear 31 -0.6 22 -5.6 69 69 WSW 5 7 30.33 1027 10 16 0.00 0.00
6:53 am 06:53 Clear 28 -2.2 22 -5.6 78 78 SW 3 6 30.33 1027 10 16 0.00 0.00
7:53 am 07:53 Sunny 29 -1.7 22 -5.6 75 75 Calm 30.30 1026 10 16 0.00 0.00
8:53 am 08:53 Sunny 36 2.2 25 -3.9 64 64 S 3 6 30.30 1026 10 16 0.00 0.00
9:53 am 09:53 Sunny 43 6.1 29 -1.7 58 58 SSW 6 9 30.29 1026 10 16 0.00 0.00
10:53 am 10:53 Sunny 50 10 28 -2.2 43 43 SSW 9 15 30.28 1025 10 16 0.00 0.00
11:53 am 11:53 Sunny 55 12.8 27 -2.8 34 34 SSW 9 15 30.24 1024 10 16 0.00 0.00
12:53 pm 12:53 Sunny 58 14.4 28 -2.2 32 32 SW 12 19 30.20 1023 10 16 0.00 0.00
1:53 pm 13:53 Sunny 59 15 27 -2.8 29 29 SW 9 15 30.16 1022 10 16 0.00 0.00
2:53 pm 14:53 Sunny 60 15.6 27 -2.8 28 28 SSW 10 17 30.14 1021 10 16 0.00 0.00
5:53 pm 17:53 Clear 48 8.9 30 -1.1 50 50 Calm 30.15 1021 10 16 0.00 0.00
6:53 pm 18:53 Clear 43 6.1 30 -1.1 60 60 Calm 30.16 1022 10 16 0.00 0.00
7:53 pm 19:53 Clear 42 5.6 30 -1.1 62 62 SW 3 6 30.17 1022 10 16 0.00 0.00
8:53 pm 20:53 Clear 36 2.2 29 -1.7 76 76 SW 3 6 30.16 1022 10 16 0.00 0.00
9:53 pm 21:53 Clear 36 2.2 28 -2.2 73 73 SSW 3 6 30.14 1021 10 16 0.00 0.00
10:53 pm 22:53 Clear 39 3.9 28 -2.2 65 65 SW 3 6 30.15 1021 10 16 0.00 0.00
11:53 pm 23:53 Clear 39 3.9 28 -2.2 65 65 SW 5 7 30.13 1020 10 16 0.00 0.00

Powered by AerisWeather